Location: Warner Observatory
(35.1353°N, 89.5455°W)
Time: 13:51:25
(UTC-06:00)

Envisat - Pass Details

Date: 01 February 2020
Orbit: 764 x 766 km, 98.1° (Epoch: 22 February)

Event Time Altitude Azimuth Distance (km) Brightness Sun altitude
Rises 18:45:40 0° 197° (SSW) 3,217 6.6 -16.5°
Reaches altitude 10° 18:48:21 10° 211° (SSW) 2,295 6.0 -17.0°
Maximum altitude 18:52:26 24° 265° (W) 1,528 5.4 -17.8°
Drops below altitude 10° 18:56:33 10° 319° (NW) 2,306 5.9 -18.7°
Sets 18:59:16 0° 333° (NNW) 3,236 6.5 -19.2°
